SCP
0 0 0 0 0 0 0 0 0 0 0 0 0 1 1 1 1 1 1 2 2 2 2 2 2 2 1 1 1 2 2 2 2 1 1 1 1 0 0 0 0 0 0 0
0 0 0 0 0 0 0 0 0 0 0 0 1 1 1 1 1 1 1 1 2 2 2 3 3 2 2 1 1 2 2 2 2 1 1 1 1 1 1 0 0 0 0 0
0 0 0 0 0 0 0 0 0 0 0 0 1 1 1 1 1 1 1 1 2 2 2 3 3 3 2 1 1 2 2 1 1 1 1 1 1 1 1 1 0 0 0 0
0 0 0 0 0 0 0 0 0 0 0 0 0 0 1 1 1 1 1 1 2 2 2 3 3 3 2 1 1 1 1 1 1 1 1 1 1 1 1 1 1 1 1 0
0 0 0 0 0 0 0 0 0 0 0 0 0 0 0 1 1 1 1 1 2 2 2 2 2 2 2 2 2 2 2 1 1 1 1 1 1 1 1 1 1 1 1 1
0 0 0 0 0 0 0 0 0 0 0 0 0 0 0 0 1 1 2 2 2 3 2 2 2 2 2 2 2 2 2 2 2 2 1 2 2 1 1 1 1 1 1 1
0 0 0 0 0 0 0 0 0 0 0 0 0 0 0 0 0 1 2 3 3 3 3 3 2 2 3 3 3 2 2 2 2 2 2 2 2 2 2 1 1 1 1 1
0 0 0 0 0 0 0 0 0 0 0 0 0 0 0 1 1 2 4 4 3 3 3 3 3 3 3 3 3 2 2 2 2 2 2 2 2 2 2 2 1 1 1 1
0 0 0 0 0 0 0 0 0 0 0 0 0 1 1 1 2 3 4 4 3 3 3 3 3 2 2 2 2 2 2 2 2 2 2 2 2 2 2 1 1 1 1 1
0 0 0 0 0 0 0 0 0 0 0 0 0 0 1 1 2 3 4 4 3 3 3 3 3 2 2 2 2 2 2 2 2 2 2 2 2 2 1 1 1 1 1 0
0 0 0 0 0 0 0 0 0 0 0 0 0 0 0 1 2 2 3 3 3 3 3 3 2 2 2 2 2 2 2 2 1 1 1 1 1 1 1 1 1 1 0 0
0 0 0 0 0 0 0 0 0 0 0 0 0 0 0 1 2 2 2 3 3 3 3 2 2 2 2 2 2 2 1 1 1 1 1 1 1 1 1 0 0 1 0 0
0 0 0 0 0 0 0 0 0 0 0 0 0 0 1 1 1 2 2 3 3 2 2 2 2 2 2 1 1 1 1 1 1 1 1 1 1 0 0 0 0 1 0 0
0 0 0 0 0 0 0 0 0 0 0 0 0 0 1 1 1 2 3 3 3 2 2 2 2 2 2 2 2 2 2 1 1 1 1 1 1 0 0 1 1 1 0 0
0 0 0 0 0 0 1 1 0 0 0 0 0 0 0 1 1 2 3 3 3 2 2 2 3 3 3 3 3 3 2 2 2 1 1 1 1 1 1 1 1 1 0 0
0 0 0 0 0 0 1 1 1 1 1 0 0 0 1 1 1 2 3 3 3 2 2 3 4 4 3 4 4 4 3 2 2 1 1 1 1 1 1 1 1 1 0 0
0 0 0 0 0 0 0 0 1 1 1 1 1 1 1 2 2 2 2 3 3 3 3 3 4 5 4 4 4 4 3 3 2 2 2 2 2 2 2 1 1 0 0 0
0 0 0 0 0 0 0 0 1 1 2 1 1 2 2 2 2 2 3 3 3 3 3 3 4 5 6 6 6 5 4 3 2 2 2 3 3 3 2 1 1 0 0 0
0 0 0 0 0 0 0 1 1 1 1 1 2 2 3 3 3 3 3 3 3 3 3 3 5 7 8 8 9 8 6 4 3 3 3 3 3 3 2 1 1 0 0 0
0 0 0 0 0 0 1 1 1 1 1 1 2 3 4 4 3 3 3 4 3 3 3 4 6 8 9 10 12 11 8 4 3 3 3 3 3 3 2 1 1 0 0 0
0 0 0 0 0 1 1 1 2 1 1 2 2 3 5 5 4 4 4 4 4 4 4 5 6 7 7 8 10 10 6 3 2 2 2 3 3 2 2 1 1 0 0 0
0 0 0 0 1 1 2 2 2 1 1 2 3 4 6 6 6 6 6 5 4 4 4 4 4 4 4 4 4 4 3 2 3 3 3 3 2 2 1 1 0 0 0 0
1 0 0 1 1 1 2 3 2 2 2 2 4 5 7 7 8 7 6 5 4 4 4 3 3 2 2 1 1 1 2 2 2 3 3 3 2 1 1 0 0 0 0 0
1 1 1 2 2 2 3 2 2 2 2 3 4 5 6 7 7 7 6 5 4 4 3 3 2 2 1 1 1 1 1 1 2 2 2 2 1 1 0 0 0 0 0 0
2 1 2 2 3 3 2 2 2 3 3 3 3 4 5 6 6 6 5 5 4 4 3 2 2 1 1 1 1 0 0 0 1 1 1 1 1 0 0 0 0 0 0 0
1 1 1 2 3 2 2 2 2 3 3 3 3 4 5 6 7 6 5 5 5 4 3 2 1 1 1 1 1 0 0 0 1 1 1 1 0 0 0 0 0 0 0 0
Wind_Speed
4 6 2 3 4 4 4 3 2 4 2 4 4 3 5 7 7 7 7 7 6 6 4 4 5 6 6 6 6 6 5 4 4 2 2 2 2 2 2 2 3 3 3 3
6 0 3 3 3 3 3 2 1 1 2 3 2 1 2 6 8 8 9 8 7 5 4 4 5 5 6 6 6 5 5 5 4 3 2 2 2 1 2 1 2 3 3 3
4 4 2 3 2 2 2 3 3 2 3 4 3 3 2 3 4 4 5 6 6 8 7 6 6 6 6 6 6 6 5 5 4 4 2 2 1 1 0 0 1 1 2 3
2 3 2 2 2 4 2 3 4 4 4 1 2 2 5 3 4 6 7 7 7 7 7 7 7 7 7 6 5 4 4 4 4 4 3 3 2 2 2 1 1 1 1 2
3 2 2 2 4 5 3 3 4 4 4 3 3 1 8 1 5 9 8 8 7 7 7 8 8 8 7 6 5 4 4 3 3 4 4 3 2 2 1 0 0 1 0 1
4 3 3 5 2 3 5 7 7 6 6 2 1 2 7 5 7 6 7 8 8 8 7 6 6 5 5 5 4 4 4 3 3 4 4 4 3 2 1 0 0 1 0 0
2 2 2 3 3 3 5 7 5 5 4 4 2 2 10 7 6 7 7 8 8 8 8 7 7 7 7 6 5 5 4 3 3 3 3 3 3 3 2 1 1 1 0 0
4 4 4 3 6 6 4 9 9 5 5 4 2 5 9 5 4 3 4 5 7 7 7 7 7 7 7 7 6 5 4 3 3 3 3 2 2 2 1 1 1 1 1 1
7 5 4 2 3 10 7 3 6 8 3 1 4 6 8 2 2 1 4 5 7 7 7 7 7 6 6 6 5 5 5 3 3 3 3 2 2 2 1 1 0 0 0 0
9 3 3 2 5 5 6 9 7 7 6 2 4 4 5 5 4 3 4 6 6 6 6 7 7 7 6 5 5 5 5 4 3 2 2 2 2 2 2 2 1 1 1 2
5 4 2 2 4 6 5 5 6 6 6 7 3 8 7 7 6 7 7 6 7 8 7 6 6 6 6 6 5 5 5 4 3 3 3 3 3 3 3 3 2 2 2 3
5 6 2 5 3 2 5 8 9 7 4 4 4 9 5 5 5 5 5 5 6 6 6 6 6 6 6 6 6 5 5 4 3 4 4 3 3 4 4 3 3 3 3 4
7 7 3 4 5 1 3 4 4 7 7 5 5 8 3 1 2 4 6 6 6 6 6 5 6 6 6 5 5 5 5 4 4 4 5 4 4 4 4 3 4 4 4 4
8 6 8 9 8 5 4 4 5 7 6 5 7 7 5 3 4 5 6 7 7 7 7 7 6 5 5 5 5 5 5 5 5 5 6 5 5 4 4 4 4 4 4 5
6 5 4 4 4 4 4 6 7 6 9 9 9 8 10 8 7 6 7 8 8 7 7 8 7 7 6 6 5 5 5 5 5 6 6 5 5 5 5 5 5 5 5 5
4 5 4 1 1 3 2 4 6 5 5 5 3 7 6 2 4 6 8 9 9 8 8 8 7 7 7 6 6 6 5 5 6 6 6 6 6 5 5 5 5 6 6 6
3 6 5 3 1 3 2 4 5 4 4 7 7 8 2 3 7 9 10 10 10 9 8 9 8 8 7 7 7 6 5 5 6 6 6 6 6 6 5 5 6 6 6 6
7 6 5 4 4 4 8 3 3 4 3 4 4 3 4 6 4 4 6 9 9 9 8 8 8 8 7 6 7 6 7 6 6 6 5 5 6 6 6 6 6 5 5 5
5 8 5 5 5 3 4 1 3 3 2 2 4 2 2 5 5 1 3 6 8 8 7 7 8 7 7 8 8 8 7 6 6 6 5 5 6 6 6 6 5 4 5 5
5 5 7 5 5 6 6 2 1 3 3 3 3 4 5 6 4 4 5 6 7 7 6 7 7 8 8 7 8 8 7 7 6 6 5 5 6 7 7 6 5 4 5 5
4 4 4 4 3 6 5 5 1 5 7 3 3 5 7 6 5 3 7 7 7 7 7 8 8 8 7 7 8 8 7 7 6 6 6 6 6 6 6 5 4 5 5 6
4 4 3 4 4 6 3 1 3 5 3 1 2 3 5 3 4 6 8 8 9 8 8 8 8 7 7 7 8 7 7 6 7 7 7 6 6 5 6 6 5 5 5 6
2 4 5 5 6 4 2 2 3 2 1 1 1 2 4 5 5 6 7 8 8 8 7 7 8 8 6 6 8 8 7 7 8 8 7 6 6 5 5 6 6 4 4 4
1 1 2 0 2 3 3 2 2 1 1 1 1 3 4 4 5 6 7 6 7 6 7 7 8 8 6 6 6 7 7 8 8 8 7 6 6 6 5 4 4 4 3 4
2 1 2 0 2 3 4 4 4 4 4 4 4 3 4 5 5 5 5 6 6 6 6 7 7 8 7 6 7 7 8 8 8 8 7 6 5 6 5 4 3 3 2 2
2 3 3 4 4 2 3 3 2 3 3 3 4 4 4 4 5 5 5 4 5 6 6 6 6 7 7 7 7 7 7 8 9 8 6 5 5 5 5 5 5 7 5 5
Wind_Direction
37 70 125 192 175 164 156 154 228 251 208 144 179 201 195 182 188 192 199 198 200 208 192 168 169 166 161 166 173 180 175 175 160 153 167 178 205 211 209 211 211 218 221 211
44 6 214 177 162 134 135 135 259 334 56 117 142 255 216 191 204 202 199 201 202 192 166 165 160 160 168 174 178 177 182 181 181 178 172 174 175 202 212 220 221 217 216 210
163 228 190 148 139 124 150 171 191 161 62 55 89 346 265 236 215 209 201 198 195 190 183 179 173 175 172 178 182 183 184 184 186 173 140 110 86 52 59 255 243 231 221 214
211 242 173 139 166 144 234 217 170 136 103 9 101 255 278 243 239 222 210 197 196 192 184 181 178 177 181 185 178 177 174 176 176 165 160 163 175 199 214 210 220 256 232 219
224 199 148 186 204 166 189 86 99 100 107 63 32 136 285 280 245 237 217 200 195 189 186 184 183 181 178 170 165 171 167 171 169 169 172 169 188 208 205 145 232 264 270 240
228 232 203 201 186 148 122 74 57 50 67 55 274 168 277 239 227 236 210 196 189 180 179 178 171 157 155 152 155 160 165 175 173 173 172 177 191 189 170 201 245 271 281 286
297 288 248 167 102 56 93 88 44 17 21 255 277 211 253 258 245 220 198 190 182 173 169 167 165 162 162 162 165 163 165 179 175 171 177 184 188 179 192 206 216 227 244 268
170 267 246 189 169 163 153 133 150 175 202 269 319 242 259 275 280 216 183 169 161 166 168 169 172 170 167 164 161 158 164 175 170 170 176 177 175 168 180 186 192 225 244 262
168 239 280 234 171 134 131 144 151 124 134 70 287 289 302 306 341 108 149 154 163 165 165 167 163 161 160 155 159 165 161 169 166 164 152 142 152 156 155 148 130 332 323 57
151 198 283 294 86 41 132 140 106 113 135 209 293 282 256 262 238 204 180 179 169 153 156 162 159 155 155 152 153 148 149 159 142 136 143 134 126 129 120 102 91 74 48 50
137 149 302 26 163 162 112 94 100 103 140 148 212 267 233 222 211 200 200 180 163 159 160 159 149 145 145 141 137 135 132 129 126 125 113 104 103 100 96 90 80 69 57 57
144 124 215 262 267 171 152 159 145 142 178 160 166 263 274 225 202 183 178 165 157 154 146 142 137 140 141 141 137 135 132 133 136 125 112 103 97 93 89 84 74 73 70 64
139 120 101 345 345 37 127 137 132 119 115 145 163 260 306 124 162 161 158 157 154 147 139 135 137 140 143 142 135 133 132 132 124 117 112 101 93 90 86 79 74 74 77 74
120 121 157 185 208 187 158 151 144 124 138 179 212 243 281 237 197 175 164 159 154 151 150 148 144 141 142 138 135 130 128 126 123 119 115 109 100 93 84 75 72 73 78 78
115 147 180 204 202 173 171 173 170 172 173 175 217 222 241 229 206 181 162 155 152 156 160 156 153 148 142 132 127 126 128 127 126 122 116 111 103 95 87 77 71 70 71 74
88 140 144 176 210 184 176 182 178 184 170 196 210 245 250 225 143 151 162 163 164 168 168 157 149 148 148 144 140 135 135 134 127 124 122 114 105 96 89 82 77 75 70 68
111 122 126 186 213 105 232 208 177 180 187 172 198 231 190 168 183 182 176 172 175 171 166 161 156 158 156 149 144 142 134 125 122 124 124 120 112 102 94 90 83 79 74 71
134 117 122 134 118 190 238 254 184 172 201 206 218 227 192 200 187 165 164 171 171 166 164 161 159 158 150 141 135 131 126 126 123 120 119 119 114 109 102 95 90 85 80 77
140 130 116 123 152 239 287 247 161 166 245 223 202 195 121 117 86 71 184 173 172 169 161 159 157 150 144 143 142 137 133 131 127 129 129 126 124 118 111 106 102 94 88 79
69 97 112 123 139 205 234 270 279 130 263 260 183 166 144 125 137 229 182 160 151 145 144 143 138 130 137 145 142 139 141 142 146 146 137 130 126 122 118 116 109 97 95 90
57 59 108 138 165 244 255 291 62 154 233 271 192 174 161 172 197 172 143 142 140 138 140 138 133 134 141 141 141 145 147 154 148 133 122 117 116 119 120 113 107 108 103 94
148 131 149 137 155 237 299 34 160 214 262 269 186 172 160 153 127 126 136 140 138 136 137 137 135 135 137 141 141 147 151 146 133 126 123 120 119 123 120 116 109 108 111 103
162 180 179 181 202 245 295 258 275 227 231 263 169 165 143 133 133 129 134 140 141 142 141 136 136 135 137 146 149 151 149 140 132 126 125 123 116 109 118 122 122 113 110 111
302 103 128 312 300 309 320 328 336 323 230 313 127 135 136 139 135 131 136 141 139 136 137 134 134 138 144 147 144 145 141 139 134 132 131 129 125 118 110 109 118 124 131 129
242 91 94 20 300 347 358 358 352 9 30 48 54 73 115 126 126 132 137 143 142 138 138 141 146 150 152 147 139 139 144 142 138 136 134 132 128 127 117 102 89 114 115 147
223 180 160 207 222 195 266 312 356 27 23 38 66 60 61 106 125 126 132 139 140 141 140 143 146 149 149 147 144 145 147 147 143 141 143 142 138 134 131 122 92 60 77 88